Regional Weather Roundup
Issued by NWS Boston, MA

Home | Current Version | Previous Version | Text Only | Print | Product List | Glossary On
Versions: 1 2 3 4 5 6 7 8 9 10 11 12 13 14 15 16 17 18 19 20 21 22 23 24 25 26 27 28 29 30 31 32 33 34 35 36 37 38 39 40 41 42 43 44 45 46 47 48 49 50
000
ASUS41 KBOX 271910
RWRBOX

REGIONAL WEATHER ROUNDUP
NATIONAL WEATHER SERVICE TAUNTON MA
300 PM EDT TUE SEP 27 2016

NOTE:  "FAIR" INDICATES FEW OR NO CLOUDS BELOW 12,000 FEET WITH NO
SIGNIFICANT WEATHER AND/OR OBSTRUCTIONS TO VISIBILITY.

MAZALL-272000-
EASTERN MASSACHUSETTS

CITY           SKY/WX    TMP DP  RH WIND       PRES   REMARKS
BOSTON         CLOUDY    68  61  78 SE8       29.89S
BEVERLY        CLOUDY    70  60  70 CALM      29.88S
LAWRENCE       MOSUNNY   71  59  65 NW5       29.91R
BEDFORD        MOSUNNY   70  58  65 CALM      29.88S
BLUE HILL      NOT AVBL
NORWOOD        CLOUDY    71  59  65 CALM      29.89S
MARSHFIELD     CLOUDY    68  61  77 E5        29.89S
PLYMOUTH       CLOUDY    69  58  67 W6        29.89F
TAUNTON        CLOUDY    71  60  68 CALM      29.89S
NEW BEDFORD    CLOUDY    71  61  70 NW3       29.89S
$$

MAZALL-272000-
CAPE COD AND THE ISLANDS

CITY           SKY/WX    TMP DP  RH WIND       PRES   REMARKS
FALMOUTH       CLOUDY    68  64  88 W3        29.91S
HYANNIS        CLOUDY    67  64  90 CALM      29.89F
CHATHAM        CLOUDY    66  65  96 CALM      29.90F
PROVINCETOWN   CLOUDY    66  62  87 NW5       29.90S
NANTUCKET      CLOUDY   N/A N/A N/A SW9       29.91F
MARTHAS VNYRD  CLOUDY    69  63  81 SW8       29.90S
$$

MAZALL-272000-
CENTRAL AND WESTERN MASSACHUSETTS

CITY           SKY/WX    TMP DP  RH WIND       PRES   REMARKS
WORCESTER      CLOUDY    69  55  60 CALM      29.91S
FITCHBURG      CLOUDY    74  52  46 SW6       29.90S
ORANGE         CLOUDY    69  48  47 CALM      29.90S
SPRINGFIELD    PTSUNNY   72  54  53 VRB5      29.88S
WESTFIELD      CLOUDY    71  52  50 S5        29.89S
NORTH ADAMS    SUNNY     69  49  48 SE5       29.89F
PITTSFIELD     SUNNY     67  45  45 SW7       29.90F
$$

RIZALL-272000-
RHODE ISLAND

CITY           SKY/WX    TMP DP  RH WIND       PRES   REMARKS
PROVIDENCE     PTSUNNY   71  60  68 CALM      29.89F
NEWPORT        CLOUDY    70  60  70 CALM      29.90S
BLOCK ISLAND   CLOUDY    68  62  81 S5        29.91S
SMITHFIELD     CLOUDY    69  59  70 NW3       29.90S
WESTERLY       CLOUDY    71  60  68 S6        29.91R
$$

CTZALL-272000-
CONNECTICUT

CITY           SKY/WX    TMP DP  RH WIND       PRES   REMARKS
BRADLEY INTL   CLOUDY    73  54  51 W5        29.90R
HARTFORD       CLOUDY    71  59  65 S5        29.89S
BRIDGEPORT     MOSUNNY   72  60  66 S8        29.90S
DANBURY        MOSUNNY   71  53  52 VRB5      29.91S
GROTON         CLOUDY    71  63  75 SW8       29.90R
NEW HAVEN      PTSUNNY   70  60  70 S8        29.90S
CHESTER        FAIR      72  61  68 S7        29.90S
MERIDEN        CLOUDY    73  55  53 CALM      29.89S
WILLIMANTIC    PTSUNNY   73  59  61 VRB3      29.90S
OXFORD         MOSUNNY   70  54  56 VRB3      29.93F
$$

MEZ002-015-021-024-NHZ003-005-008-011-012-014-VTZ005-008-272000-
NORTHERN NEW ENGLAND

CITY           SKY/WX    TMP DP  RH WIND       PRES   REMARKS
PORTLAND ME    CLOUDY    68  57  68 VRB3      29.89R
BANGOR ME      CLOUDY    61  53  75 N6        29.90S
CONCORD NH     CLOUDY    71  53  52 VRB3      29.89S
MANCHESTER NH  CLOUDY    70  54  56 VRB3      29.88S
NASHUA NH      MOSUNNY   70  58  65 CALM      29.90R
PORTSMOUTH NH  PTSUNNY   71  58  65 W5        29.88R
JAFFREY NH     CLOUDY    68  53  58 S5        29.92S
KEENE NH       MOSUNNY   69  50  50 VRB3      29.90S
BURLINGTON VT  MOSUNNY   72  43  35 VRB3      29.86F
MT. WASHINGTON MOSUNNY   41  36  81 W8          N/A
$$

NYZ052-076-272000-
EASTERN NEW YORK

CITY           SKY/WX    TMP DP  RH WIND       PRES   REMARKS
ALBANY         MOSUNNY   71  50  47 E7        29.88F
NEW YORK CITY  PTSUNNY   75  55  49 N5        29.88F
$$

ANZALL-272000-
MARINE OBSERVATIONS

STATION/POSITION TIME  TEMP    WIND        PRES    VSBY  WAVE
                       AIR SEA DIR/SP/G                  HT/PER
                 (UTC) (F)     (DEG/KT/KT) (MB)    (MI)  (FT/S)
BOSTON BUOY      1850   64 64  210/  2/  2 1012.3R         1/ 4
BUZZARDS BAY     1800   66     270/  7/  7 1012.7F
NANTUCKET SOUND  1850   67 67  230/ 10/ 12 1012.3F         1/ 3
MASS BAY-STELLWA 1804   63 62  220/  4/  4 1011.6F  1 7/8  2/ 4
ISLE OF SHOALS   1800   64     300/  2/  2 1011.6F
S OF BLOCK IS    1825      66                N/A           6/ 7
$$

......................KEY.........................
  SKY/WX - SKY CONDITION/PRESENT WEATHER
  TMP    - TEMPERATURE IN FAHRENHEIT
  DWPT   - DEWPOINT IN FAHRENHEIT
  RH     - RELATIVE HUMIDITY IN PERCENT
  WIND   - DIRECTION AND SPEED IN MPH
  PRES   - MEAN SEA LEVEL PRESSURE IN INCHES OF HG
  WCI    - WIND CHILL INDEX
  VSB    - VISIBILITY IN MILES
  HX     - HEAT INDEX
  TC     - TEMPERATURE IN CELSIUS
  VRB    - VARIABLE WIND DIRECTION
  N/A    - NOT AVAILABLE



USA.gov is the U.S. government's official web portal to all federal, state and local government web resources and services.